Location: Church Tower
(37.7144°N, 119.6316°W)
Time: 18:45:54
(UTC+00:00)

Cosmos 2297 - Pass Details

Date: 15 November 2025
Orbit: 836 x 856 km, 71.0° (Epoch: 08 December)

Event Time Altitude Azimuth Distance (km) Brightness Sun altitude
Rises 13:48:00 0° 336° (NNW) 3,400 6.5 -10.4°
Reaches altitude 10° 13:50:27 10° 336° (NNW) 2,459 5.7 -9.9°
Maximum altitude 13:56:05 81° 250° (WSW) 851 3.7 -8.8°
Drops below altitude 10° 14:01:41 10° 164° (SSE) 2,438 6.6 -7.8°
Sets 14:04:06 0° 163° (SSE) 3,368 7.4 -7.3°
